| time (UTC) | temp F | wind direction | speed MPH | gust MPH | rain 1hr in | rain 24hr in | rain mn in | humidity % | barometer mb |
| 20260505215006 | 92 | 254 | 3.0 | 9.0 | 0.00 | 0.00 | 0.00 | 48 | 1003.4 |
| 20260505214448 | 92 | 309 | 4.0 | 9.0 | 0.00 | 0.00 | 0.00 | 48 | 1003.4 |
| 20260505213654 | 92 | 169 | 4.0 | 9.0 | 0.00 | 0.00 | 0.00 | 48 | 1003.4 |
| 20260505213150 | 92 | 238 | 3.0 | 8.0 | 0.00 | 0.00 | 0.00 | 50 | 1003.4 |
| 20260505212947 | 92 | 190 | 3.0 | 10.0 | 0.00 | 0.00 | 0.00 | 50 | 1003.5 |
| 20260505212150 | 92 | 286 | 4.0 | 11.0 | 0.00 | 0.00 | 0.00 | 51 | 1003.6 |
| 20260505211650 | 92 | 130 | 4.0 | 11.0 | 0.00 | 0.00 | 0.00 | 50 | 1003.7 |
| 20260505211443 | 92 | 211 | 3.0 | 8.0 | 0.00 | 0.00 | 0.00 | 51 | 1003.8 |
| 20260505210650 | 92 | 199 | 3.0 | 8.0 | 0.00 | 0.00 | 0.00 | 51 | 1003.7 |
| 20260505210148 | 92 | 333 | 2.0 | 8.0 | 0.00 | 0.00 | 0.00 | 51 | 1003.8 |
| 20260505205650 | 91 | 317 | 2.0 | 8.0 | 0.00 | 0.00 | 0.00 | 52 | 1003.8 |
| 20260505205437 | 91 | 323 | 2.0 | 8.0 | 0.00 | 0.00 | 0.00 | 52 | 1003.8 |
| 20260505204659 | 91 | 176 | 3.0 | 8.0 | 0.00 | 0.00 | 0.00 | 54 | 1003.9 |
| 20260505204146 | 91 | 342 | 3.0 | 8.0 | 0.00 | 0.00 | 0.00 | 54 | 1004.0 |
| 20260505203943 | 91 | 303 | 3.0 | 8.0 | 0.00 | 0.00 | 0.00 | 54 | 1004.1 |
| 20260505203143 | 89 | 210 | 3.0 | 10.0 | 0.00 | 0.00 | 0.00 | 56 | 1004.0 |
| 20260505202642 | 90 | 231 | 2.0 | 10.0 | 0.00 | 0.00 | 0.00 | 54 | 1004.3 |
| 20260505202138 | 91 | 89 | 3.0 | 8.0 | 0.00 | 0.00 | 0.00 | 54 | 1004.4 |
| 20260505201646 | 90 | 269 | 3.0 | 8.0 | 0.00 | 0.00 | 0.00 | 55 | 1004.3 |
| 20260505201138 | 89 | 188 | 3.0 | 11.0 | 0.00 | 0.00 | 0.00 | 56 | 1004.3 |
| 20260505200638 | 89 | 256 | 4.0 | 11.0 | 0.00 | 0.00 | 0.00 | 55 | 1004.3 |
| 20260505200138 | 89 | 205 | 5.0 | 10.0 | 0.00 | 0.00 | 0.00 | 57 | 1004.3 |
| 20260505195935 | 89 | 180 | 5.0 | 12.0 | 0.00 | 0.00 | 0.00 | 56 | 1004.3 |
| 20260505195138 | 89 | 139 | 5.0 | 12.0 | 0.00 | 0.00 | 0.00 | 56 | 1004.5 |
| 20260505194638 | 89 | 203 | 5.0 | 12.0 | 0.00 | 0.00 | 0.00 | 58 | 1004.3 |
| 20260505194139 | 88 | 219 | 6.0 | 15.0 | 0.00 | 0.00 | 0.00 | 59 | 1004.3 |
| 20260505193634 | 88 | 141 | 5.0 | 15.0 | 0.00 | 0.00 | 0.00 | 59 | 1004.5 |
| 20260505193134 | 88 | 230 | 5.0 | 14.0 | 0.00 | 0.00 | 0.00 | 59 | 1004.5 |
| 20260505192634 | 88 | 132 | 5.0 | 11.0 | 0.00 | 0.00 | 0.00 | 58 | 1004.4 |
| 20260505192134 | 88 | 159 | 5.0 | 11.0 | 0.00 | 0.00 | 0.00 | 59 | 1004.4 |
| 20260505191635 | 87 | 167 | 5.0 | 10.0 | 0.00 | 0.00 | 0.00 | 60 | 1004.4 |
| 20260505191134 | 87 | 186 | 5.0 | 13.0 | 0.00 | 0.00 | 0.00 | 61 | 1004.4 |
| 20260505190635 | 87 | 221 | 5.0 | 13.0 | 0.00 | 0.00 | 0.00 | 60 | 1004.4 |
| 20260505190135 | 86 | 184 | 5.0 | 13.0 | 0.00 | 0.00 | 0.00 | 61 | 1004.3 |
| 20260505185634 | 86 | 149 | 6.0 | 13.0 | 0.00 | 0.00 | 0.00 | 61 | 1004.4 |
| 20260505185136 | 86 | 199 | 5.0 | 13.0 | 0.00 | 0.00 | 0.00 | 61 | 1004.4 |
| 20260505184635 | 86 | 168 | 4.0 | 12.0 | 0.00 | 0.00 | 0.00 | 61 | 1004.4 |
| 20260505184135 | 86 | 193 | 4.0 | 11.0 | 0.00 | 0.00 | 0.00 | 61 | 1004.4 |
| 20260505183635 | 86 | 215 | 4.0 | 10.0 | 0.00 | 0.00 | 0.00 | 62 | 1004.4 |
| 20260505183137 | 86 | 282 | 4.0 | 12.0 | 0.00 | 0.00 | 0.00 | 61 | 1004.4 |
| 20260505182634 | 86 | 186 | 5.0 | 12.0 | 0.00 | 0.00 | 0.00 | 62 | 1004.3 |
| 20260505182134 | 86 | 195 | 5.0 | 12.0 | 0.00 | 0.00 | 0.00 | 61 | 1004.4 |
| 20260505181631 | 86 | 140 | 5.0 | 13.0 | 0.00 | 0.00 | 0.00 | 61 | 1004.4 |
| 20260505181130 | 86 | 153 | 6.0 | 13.0 | 0.00 | 0.00 | 0.00 | 62 | 1004.4 |
| 20260505180631 | 86 | 206 | 6.0 | 13.0 | 0.00 | 0.00 | 0.00 | 62 | 1004.5 |
| 20260505180420 | 86 | 155 | 5.0 | 12.0 | 0.00 | 0.00 | 0.00 | 63 | 1004.4 |
| 20260505175631 | 85 | 130 | 5.0 | 12.0 | 0.00 | 0.00 | 0.00 | 66 | 1004.4 |
| 20260505175128 | 85 | 161 | 5.0 | 12.0 | 0.00 | 0.00 | 0.00 | 65 | 1004.4 |
| 20260505174627 | 85 | 265 | 5.0 | 11.0 | 0.00 | 0.00 | 0.00 | 66 | 1004.3 |
| 20260505174128 | 84 | 180 | 6.0 | 12.0 | 0.00 | 0.00 | 0.00 | 67 | 1004.3 |
| 20260505173922 | 84 | 136 | 6.0 | 16.0 | 0.00 | 0.00 | 0.00 | 66 | 1004.4 |
| 20260505173425 | 84 | 159 | 6.0 | 16.0 | 0.00 | 0.00 | 0.00 | 66 | 1004.3 |
| 20260505172627 | 83 | 219 | 6.0 | 13.0 | 0.00 | 0.00 | 0.00 | 66 | 1004.4 |
| 20260505172127 | 83 | 165 | 5.0 | 12.0 | 0.00 | 0.00 | 0.00 | 69 | 1004.4 |
| 20260505171628 | 83 | 213 | 6.0 | 15.0 | 0.00 | 0.00 | 0.00 | 68 | 1004.4 |
| 20260505171128 | 82 | 144 | 6.0 | 16.0 | 0.00 | 0.00 | 0.00 | 69 | 1004.4 |
| 20260505170627 | 82 | 164 | 6.0 | 16.0 | 0.00 | 0.00 | 0.00 | 69 | 1004.4 |
| 20260505170424 | 82 | 272 | 5.0 | 14.0 | 0.00 | 0.00 | 0.00 | 69 | 1004.7 |
| 20260505165628 | 82 | 218 | 5.0 | 14.0 | 0.00 | 0.00 | 0.00 | 70 | 1004.7 |
| 20260505165419 | 82 | 158 | 5.0 | 22.0 | 0.00 | 0.00 | 0.00 | 70 | 1004.4 |
| 20260505164628 | 81 | 202 | 5.0 | 22.0 | 0.00 | 0.00 | 0.00 | 71 | 1004.7 |
| 20260505164422 | 81 | 163 | 6.0 | 12.0 | 0.00 | 0.00 | 0.00 | 72 | 1004.5 |
| 20260505163626 | 80 | 212 | 7.0 | 17.0 | 0.00 | 0.00 | 0.00 | 73 | 1004.4 |
| 20260505163126 | 80 | 150 | 7.0 | 17.0 | 0.00 | 0.00 | 0.00 | 72 | 1004.4 |
| 20260505162626 | 80 | 327 | 7.0 | 16.0 | 0.00 | 0.00 | 0.00 | 73 | 1004.7 |
| 20260505162126 | 79 | 147 | 7.0 | 16.0 | 0.00 | 0.00 | 0.00 | 73 | 1004.5 |
| 20260505161925 | 79 | 175 | 7.0 | 16.0 | 0.00 | 0.00 | 0.00 | 73 | 1004.5 |
| 20260505161126 | 79 | 203 | 6.0 | 16.0 | 0.00 | 0.00 | 0.00 | 73 | 1004.2 |
| 20260505161008 | 79 | 182 | 7.0 | 18.0 | 0.00 | 0.00 | 0.00 | 74 | 1004.3 |
| 20260505161003 | 79 | 158 | 6.0 | 18.0 | 0.00 | 0.00 | 0.00 | 74 | 1004.3 |
| 20260505153120 | 78 | 163 | 7.0 | 18.0 | 0.00 | 0.00 | 0.00 | 75 | 1004.0 |
| 20260505152620 | 78 | 191 | 7.0 | 17.0 | 0.00 | 0.00 | 0.00 | 76 | 1004.1 |
| 20260505152118 | 78 | 188 | 8.0 | 17.0 | 0.00 | 0.00 | 0.00 | 77 | 1004.0 |
| 20260505151631 | 77 | 209 | 7.0 | 17.0 | 0.00 | 0.00 | 0.00 | 79 | 1004.2 |
| 20260505151118 | 76 | 126 | 6.0 | 17.0 | 0.00 | 0.00 | 0.00 | 79 | 1004.1 |
| 20260505150618 | 76 | 209 | 6.0 | 17.0 | 0.00 | 0.00 | 0.00 | 80 | 1004.4 |
| 20260505150121 | 76 | 225 | 6.0 | 17.0 | 0.00 | 0.00 | 0.00 | 80 | 1004.4 |
| 20260505140614 | 73 | 169 | 5.0 | 13.0 | 0.00 | 0.00 | 0.00 | 85 | 1004.2 |
| 20260505140114 | 73 | 276 | 5.0 | 15.0 | 0.00 | 0.00 | 0.00 | 85 | 1004.2 |
| 20260505130114 | 71 | 136 | 6.0 | 17.0 | 0.00 | 0.00 | 0.00 | 88 | 1004.3 |
| 20260505124614 | 71 | 253 | 6.0 | 18.0 | 0.00 | 0.00 | 0.00 | 88 | 1004.0 |
| 20260505124113 | 71 | 194 | 6.0 | 15.0 | 0.00 | 0.00 | 0.00 | 88 | 1003.8 |
| 20260505123612 | 71 | 185 | 6.0 | 11.0 | 0.00 | 0.00 | 0.00 | 88 | 1003.7 |
| 20260505123112 | 71 | 195 | 5.0 | 13.0 | 0.00 | 0.00 | 0.00 | 88 | 1003.6 |
| 20260505122609 | 71 | 212 | 6.0 | 15.0 | 0.00 | 0.00 | 0.00 | 88 | 1003.5 |
| 20260505122108 | 71 | 223 | 6.0 | 15.0 | 0.00 | 0.00 | 0.00 | 88 | 1003.5 |
| 20260505121607 | 71 | 214 | 6.0 | 16.0 | 0.00 | 0.00 | 0.00 | 88 | 1003.4 |
| 20260505121109 | 71 | 202 | 7.0 | 16.0 | 0.00 | 0.00 | 0.00 | 87 | 1003.4 |
| 20260505120606 | 71 | 182 | 7.0 | 15.0 | 0.00 | 0.00 | 0.00 | 87 | 1003.4 |
| 20260505120205 | 71 | 185 | 6.0 | 13.0 | 0.00 | 0.00 | 0.00 | 87 | 1003.4 |
| 20260505120148 | 71 | 202 | 6.0 | 15.0 | 0.00 | 0.00 | 0.00 | 87 | 1003.3 |
| 20260505115154 | 71 | 190 | 5.0 | 15.0 | 0.00 | 0.00 | 0.00 | 87 | 1003.2 |
| 20260505115138 | 71 | 151 | 6.0 | 15.0 | 0.00 | 0.00 | 0.00 | 87 | 1003.3 |
| 20260505114101 | 71 | 204 | 6.0 | 13.0 | 0.00 | 0.00 | 0.00 | 87 | 1003.3 |
| 20260505113600 | 71 | 232 | 6.0 | 13.0 | 0.00 | 0.00 | 0.00 | 87 | 1003.4 |
| 20260505113100 | 71 | 150 | 5.0 | 13.0 | 0.00 | 0.00 | 0.00 | 87 | 1003.3 |
| 20260505112559 | 71 | 157 | 6.0 | 15.0 | 0.00 | 0.00 | 0.00 | 87 | 1003.4 |
| 20260505112101 | 71 | 212 | 6.0 | 15.0 | 0.00 | 0.00 | 0.00 | 87 | 1003.2 |
| 20260505111652 | 71 | 213 | 6.0 | 12.0 | 0.00 | 0.00 | 0.00 | 87 | 1003.3 |
| 20260505111636 | 71 | 130 | 6.0 | 13.0 | 0.00 | 0.00 | 0.00 | 87 | 1003.3 |
| 20260505110557 | 71 | 194 | 6.0 | 13.0 | 0.00 | 0.00 | 0.00 | 87 | 1003.2 |
| 20260505102057 | 71 | 200 | 6.0 | 14.0 | 0.00 | 0.00 | 0.00 | 86 | 1003.2 |
| 20260505101552 | 71 | 148 | 6.0 | 19.0 | 0.00 | 0.00 | 0.00 | 86 | 1003.2 |
| 20260505101335 | 71 | 227 | 7.0 | 19.0 | 0.00 | 0.00 | 0.00 | 86 | 1003.4 |
| 20260505101113 | 71 | 227 | 7.0 | 19.0 | 0.00 | 0.00 | 0.00 | 86 | 1003.4 |
| 20260505100552 | 71 | 196 | 6.0 | 16.0 | 0.00 | 0.00 | 0.00 | 86 | 1003.3 |
| 20260505100052 | 71 | 144 | 5.0 | 16.0 | 0.00 | 0.00 | 0.00 | 86 | 1003.3 |
| 20260505095552 | 71 | 159 | 6.0 | 14.0 | 0.00 | 0.00 | 0.00 | 86 | 1003.4 |
| 20260505095052 | 71 | 144 | 7.0 | 14.0 | 0.00 | 0.00 | 0.00 | 86 | 1003.4 |
| 20260505094552 | 71 | 161 | 8.0 | 16.0 | 0.00 | 0.00 | 0.00 | 86 | 1003.3 |
| 20260505094055 | 71 | 161 | 7.0 | 16.0 | 0.00 | 0.00 | 0.00 | 86 | 1003.4 |
| 20260505093552 | 71 | 170 | 6.0 | 16.0 | 0.00 | 0.00 | 0.00 | 86 | 1003.4 |
| 20260505093052 | 71 | 196 | 6.0 | 17.0 | 0.00 | 0.00 | 0.00 | 86 | 1003.5 |
| 20260505092552 | 71 | 238 | 7.0 | 17.0 | 0.00 | 0.00 | 0.00 | 86 | 1003.5 |
| 20260505092053 | 71 | 190 | 7.0 | 16.0 | 0.00 | 0.00 | 0.00 | 86 | 1003.6 |
| 20260505091551 | 71 | 167 | 7.0 | 16.0 | 0.00 | 0.00 | 0.00 | 86 | 1003.7 |
| 20260505091052 | 71 | 149 | 6.0 | 16.0 | 0.00 | 0.00 | 0.00 | 85 | 1003.7 |
| 20260505090545 | 71 | 199 | 6.0 | 13.0 | 0.00 | 0.00 | 0.00 | 85 | 1003.7 |
| 20260505090044 | 71 | 165 | 6.0 | 13.0 | 0.00 | 0.00 | 0.00 | 85 | 1003.7 |
| 20260505085541 | 71 | 141 | 5.0 | 12.0 | 0.00 | 0.00 | 0.00 | 85 | 1003.7 |
| 20260505085037 | 72 | 178 | 7.0 | 16.0 | 0.00 | 0.00 | 0.00 | 85 | 1003.7 |
| 20260505084538 | 72 | 222 | 8.0 | 21.0 | 0.00 | 0.00 | 0.00 | 85 | 1003.7 |
| 20260505084037 | 72 | 190 | 7.0 | 21.0 | 0.00 | 0.00 | 0.00 | 85 | 1003.8 |
| 20260505083538 | 72 | 219 | 6.0 | 15.0 | 0.00 | 0.00 | 0.00 | 84 | 1003.7 |
| 20260505083037 | 72 | 219 | 7.0 | 15.0 | 0.00 | 0.00 | 0.00 | 84 | 1003.6 |
| 20260505082829 | 72 | 155 | 6.0 | 14.0 | 0.00 | 0.00 | 0.00 | 84 | 1003.7 |
| 20260505082037 | 72 | 159 | 6.0 | 13.0 | 0.00 | 0.00 | 0.00 | 84 | 1003.8 |
| 20260505081539 | 72 | 182 | 6.0 | 12.0 | 0.00 | 0.00 | 0.00 | 83 | 1003.7 |
| 20260505081332 | 72 | 178 | 6.0 | 19.0 | 0.00 | 0.00 | 0.00 | 83 | 1003.7 |
| 20260505080538 | 72 | 145 | 7.0 | 19.0 | 0.00 | 0.00 | 0.00 | 83 | 1003.7 |
| 20260505080035 | 72 | 180 | 7.0 | 22.0 | 0.00 | 0.00 | 0.00 | 83 | 1003.8 |
| 20260505075535 | 72 | 198 | 7.0 | 22.0 | 0.00 | 0.00 | 0.00 | 83 | 1003.8 |
| 20260505075031 | 73 | 193 | 7.0 | 18.0 | 0.00 | 0.00 | 0.00 | 82 | 1003.9 |
| 20260505074524 | 73 | 122 | 7.0 | 20.0 | 0.00 | 0.00 | 0.00 | 82 | 1003.9 |
| 20260505074318 | 73 | 150 | 7.0 | 20.0 | 0.00 | 0.00 | 0.00 | 81 | 1004.1 |
| 20260505073837 | 73 | 190 | 6.0 | 17.0 | 0.00 | 0.00 | 0.00 | 81 | 1004.1 |
| 20260505073021 | 73 | 156 | 6.0 | 17.0 | 0.00 | 0.00 | 0.00 | 81 | 1004.4 |
| 20260505072820 | 73 | 184 | 6.0 | 15.0 | 0.00 | 0.00 | 0.00 | 80 | 1004.3 |
| 20260505072022 | 73 | 155 | 6.0 | 18.0 | 0.00 | 0.00 | 0.00 | 80 | 1004.4 |
| 20260505071521 | 73 | 181 | 6.0 | 18.0 | 0.00 | 0.00 | 0.00 | 79 | 1004.5 |
| 20260505071021 | 73 | 205 | 7.0 | 13.0 | 0.00 | 0.00 | 0.00 | 79 | 1004.5 |
| 20260505070531 | 73 | 188 | 6.0 | 17.0 | 0.00 | 0.00 | 0.00 | 79 | 1004.7 |
| 20260505070024 | 73 | 135 | 6.0 | 17.0 | 0.00 | 0.00 | 0.00 | 78 | 1004.9 |
| 20260505065521 | 74 | 121 | 7.0 | 16.0 | 0.00 | 0.00 | 0.00 | 78 | 1005.0 |
| 20260505065119 | 74 | 157 | 6.0 | 18.0 | 0.00 | 0.00 | 0.00 | 77 | 1005.0 |
| 20260505065100 | 74 | 153 | 7.0 | 18.0 | 0.00 | 0.00 | 0.00 | 78 | 1004.9 |
| 20260505064322 | 74 | 136 | 5.0 | 15.0 | 0.00 | 0.00 | 0.00 | 77 | 1005.0 |
| 20260505063516 | 74 | 227 | 6.0 | 14.0 | 0.00 | 0.00 | 0.00 | 77 | 1005.1 |
| 20260505063016 | 74 | 168 | 6.0 | 14.0 | 0.00 | 0.00 | 0.00 | 77 | 1005.1 |
| 20260505062515 | 74 | 197 | 6.0 | 15.0 | 0.00 | 0.00 | 0.00 | 77 | 1005.1 |
| 20260505062013 | 74 | 186 | 5.0 | 15.0 | 0.00 | 0.00 | 0.00 | 77 | 1005.1 |
| 20260505061513 | 74 | 142 | 5.0 | 15.0 | 0.00 | 0.00 | 0.00 | 76 | 1005.1 |
| 20260505061013 | 74 | 138 | 5.0 | 15.0 | 0.00 | 0.00 | 0.00 | 76 | 1005.2 |
| 20260505060513 | 74 | 148 | 6.0 | 15.0 | 0.00 | 0.00 | 0.00 | 76 | 1005.2 |
| 20260505060013 | 74 | 161 | 6.0 | 15.0 | 0.00 | 0.00 | 0.00 | 75 | 1005.1 |
| 20260505055515 | 74 | 192 | 5.0 | 15.0 | 0.00 | 0.00 | 0.00 | 75 | 1005.0 |
| 20260505055325 | 74 | 211 | 6.0 | 16.0 | 0.00 | 0.00 | 0.00 | 75 | 1005.0 |
| 20260505054602 | 74 | 196 | 5.0 | 11.0 | 0.00 | 0.00 | 0.00 | 74 | 1005.2 |
| 20260505054548 | 74 | 198 | 5.0 | 16.0 | 0.00 | 0.00 | 0.00 | 75 | 1005.2 |
| 20260505053509 | 74 | 173 | 6.0 | 14.0 | 0.00 | 0.00 | 0.00 | 74 | 1005.1 |
| 20260505053011 | 74 | 178 | 5.0 | 14.0 | 0.00 | 0.00 | 0.00 | 74 | 1005.2 |
| 20260505052504 | 74 | 137 | 6.0 | 15.0 | 0.00 | 0.00 | 0.00 | 74 | 1005.3 |
| 20260505052008 | 74 | 154 | 6.0 | 15.0 | 0.00 | 0.00 | 0.00 | 74 | 1005.4 |
| 20260505051504 | 74 | 188 | 6.0 | 14.0 | 0.00 | 0.00 | 0.00 | 74 | 1005.4 |
| 20260505051004 | 74 | 140 | 6.0 | 13.0 | 0.00 | 0.00 | 0.00 | 74 | 1005.6 |
| 20260505050803 | 74 | 170 | 6.0 | 16.0 | 0.00 | 0.00 | 0.00 | 73 | 1005.5 |
| 20260505050321 | 75 | 162 | 7.0 | 17.0 | 0.00 | 0.00 | 0.00 | 73 | 1005.5 |
| 20260505041448 | 75 | 121 | 6.0 | 17.0 | 0.00 | 0.00 | 0.00 | 72 | 1005.5 |
| 20260505041240 | 75 | 160 | 6.0 | 17.0 | 0.00 | 0.00 | 0.00 | 72 | 1005.7 |
| 20260505040434 | 75 | 180 | 7.0 | 17.0 | 0.00 | 0.00 | 0.00 | 71 | 1005.6 |
| 20260505035934 | 75 | 150 | 7.0 | 16.0 | 0.00 | 0.00 | 0.00 | 71 | 1005.7 |
| 20260505035435 | 75 | 118 | 6.0 | 16.0 | 0.00 | 0.00 | 0.00 | 71 | 1005.6 |
| 20260505034935 | 75 | 188 | 7.0 | 15.0 | 0.00 | 0.00 | 0.00 | 71 | 1005.7 |
| 20260505034430 | 75 | 159 | 6.0 | 13.0 | 0.00 | 0.00 | 0.00 | 71 | 1005.6 |
| 20260505033930 | 75 | 126 | 6.0 | 15.0 | 0.00 | 0.00 | 0.00 | 71 | 1005.6 |
| 20260505033429 | 75 | 193 | 7.0 | 15.0 | 0.00 | 0.00 | 0.00 | 71 | 1005.7 |
| 20260505032929 | 75 | 205 | 6.0 | 13.0 | 0.00 | 0.00 | 0.00 | 71 | 1005.7 |
| 20260505032428 | 75 | 169 | 6.0 | 12.0 | 0.00 | 0.00 | 0.00 | 71 | 1005.7 |
| 20260505031928 | 75 | 225 | 6.0 | 15.0 | 0.00 | 0.00 | 0.00 | 70 | 1005.9 |
| 20260505031429 | 75 | 179 | 5.0 | 15.0 | 0.00 | 0.00 | 0.00 | 70 | 1005.7 |
| 20260505030937 | 75 | 182 | 6.0 | 14.0 | 0.00 | 0.00 | 0.00 | 70 | 1005.7 |
| 20260505030428 | 75 | 154 | 6.0 | 18.0 | 0.00 | 0.00 | 0.00 | 70 | 1005.7 |
| 20260505025929 | 76 | 176 | 6.0 | 18.0 | 0.00 | 0.00 | 0.00 | 70 | 1005.8 |
| 20260505025426 | 76 | 163 | 5.0 | 16.0 | 0.00 | 0.00 | 0.00 | 70 | 1005.7 |
| 20260505024926 | 76 | 234 | 5.0 | 12.0 | 0.00 | 0.00 | 0.00 | 69 | 1005.7 |
| 20260505024508 | 76 | 168 | 6.0 | 17.0 | 0.00 | 0.00 | 0.00 | 69 | 1005.6 |
| 20260505024455 | 76 | 222 | 6.0 | 17.0 | 0.00 | 0.00 | 0.00 | 69 | 1005.7 |
| 20260505023427 | 76 | 148 | 5.0 | 16.0 | 0.00 | 0.00 | 0.00 | 69 | 1005.7 |
| 20260505023236 | 76 | 134 | 5.0 | 12.0 | 0.00 | 0.00 | 0.00 | 69 | 1005.8 |
| 20260505022428 | 76 | 229 | 5.0 | 15.0 | 0.00 | 0.00 | 0.00 | 69 | 1005.7 |
| 20260505021927 | 76 | 172 | 5.0 | 15.0 | 0.00 | 0.00 | 0.00 | 69 | 1005.6 |
| 20260505021426 | 76 | 208 | 6.0 | 14.0 | 0.00 | 0.00 | 0.00 | 69 | 1005.7 |
| 20260505020926 | 76 | 177 | 6.0 | 17.0 | 0.00 | 0.00 | 0.00 | 69 | 1005.7 |
| 20260505020424 | 76 | 161 | 5.0 | 17.0 | 0.00 | 0.00 | 0.00 | 68 | 1005.5 |
| 20260505015925 | 76 | 186 | 5.0 | 11.0 | 0.00 | 0.00 | 0.00 | 68 | 1005.6 |
| 20260505015423 | 76 | 188 | 5.0 | 13.0 | 0.00 | 0.00 | 0.00 | 68 | 1005.6 |
| 20260505014924 | 76 | 130 | 5.0 | 13.0 | 0.00 | 0.00 | 0.00 | 68 | 1005.6 |
| 20260505014418 | 76 | 136 | 5.0 | 12.0 | 0.00 | 0.00 | 0.00 | 67 | 1005.6 |
| 20260505013912 | 76 | 150 | 6.0 | 13.0 | 0.00 | 0.00 | 0.00 | 67 | 1005.5 |
| 20260505013701 | 76 | 202 | 6.0 | 13.0 | 0.00 | 0.00 | 0.00 | 67 | 1005.7 |
| 20260505012900 | 76 | 177 | 6.0 | 20.0 | 0.00 | 0.00 | 0.00 | 66 | 1005.6 |
| 20260505012400 | 77 | 192 | 6.0 | 20.0 | 0.00 | 0.00 | 0.00 | 66 | 1005.8 |
| 20260505011906 | 77 | 118 | 6.0 | 13.0 | 0.00 | 0.00 | 0.00 | 66 | 1005.6 |
| 20260505011402 | 77 | 130 | 5.0 | 13.0 | 0.00 | 0.00 | 0.00 | 66 | 1005.7 |
| 20260505010901 | 77 | 200 | 4.0 | 11.0 | 0.00 | 0.00 | 0.00 | 66 | 1005.5 |
| 20260505010400 | 77 | 167 | 6.0 | 13.0 | 0.00 | 0.00 | 0.00 | 65 | 1005.7 |
| 20260505005900 | 77 | 195 | 6.0 | 17.0 | 0.00 | 0.00 | 0.00 | 65 | 1005.6 |
| 20260505005401 | 77 | 167 | 5.0 | 17.0 | 0.00 | 0.00 | 0.00 | 65 | 1005.6 |
| 20260505004901 | 78 | 211 | 6.0 | 13.0 | 0.00 | 0.00 | 0.00 | 64 | 1005.4 |
| 20260505004404 | 78 | 153 | 6.0 | 14.0 | 0.00 | 0.00 | 0.00 | 64 | 1005.5 |
| 20260505003902 | 78 | 169 | 7.0 | 21.0 | 0.00 | 0.00 | 0.00 | 64 | 1005.6 |
| 20260505003653 | 78 | 140 | 8.0 | 21.0 | 0.00 | 0.00 | 0.00 | 63 | 1005.5 |
| 20260505002903 | 78 | 163 | 7.0 | 20.0 | 0.00 | 0.00 | 0.00 | 63 | 1005.6 |
| 20260505002358 | 78 | 146 | 8.0 | 16.0 | 0.00 | 0.00 | 0.00 | 62 | 1005.7 |
| 20260505001857 | 78 | 169 | 9.0 | 19.0 | 0.00 | 0.00 | 0.00 | 62 | 1005.7 |
| 20260505001649 | 79 | 169 | 8.0 | 22.0 | 0.00 | 0.00 | 0.00 | 61 | 1005.8 |
| 20260505000900 | 79 | 174 | 6.0 | 22.0 | 0.00 | 0.00 | 0.00 | 61 | 1005.8 |
| 20260505000656 | 79 | 236 | 8.0 | 16.0 | 0.00 | 0.00 | 0.00 | 61 | 1005.8 |
| 20260504235854 | 80 | 190 | 7.0 | 18.0 | 0.00 | 0.00 | 0.00 | 61 | 1005.7 |
| 20260504235354 | 80 | 175 | 6.0 | 18.0 | 0.00 | 0.00 | 0.00 | 60 | 1005.7 |
| 20260504234855 | 80 | 147 | 6.0 | 16.0 | 0.00 | 0.00 | 0.00 | 60 | 1005.7 |
| 20260504234654 | 80 | 196 | 6.0 | 16.0 | 0.00 | 0.00 | 0.00 | 60 | 1005.8 |
| 20260504233943 | 80 | 208 | 7.0 | 14.0 | 0.00 | 0.00 | 0.00 | 60 | 1005.9 |
| 20260504233928 | 80 | 135 | 7.0 | 13.0 | 0.00 | 0.00 | 0.00 | 60 | 1005.9 |
| 20260504232852 | 80 | 186 | 7.0 | 15.0 | 0.00 | 0.00 | 0.00 | 60 | 1006.0 |
| 20260504232353 | 80 | 202 | 7.0 | 18.0 | 0.00 | 0.00 | 0.00 | 59 | 1005.8 |
| 20260504232150 | 81 | 193 | 8.0 | 24.0 | 0.00 | 0.00 | 0.00 | 58 | 1005.8 |
| 20260504231352 | 81 | 167 | 7.0 | 24.0 | 0.00 | 0.00 | 0.00 | 58 | 1005.8 |
| 20260504230853 | 82 | 40 | 7.0 | 17.0 | 0.00 | 0.00 | 0.00 | 58 | 1005.9 |
| 20260504230352 | 82 | 135 | 8.0 | 17.0 | 0.00 | 0.00 | 0.00 | 57 | 1006.1 |
| 20260504225856 | 82 | 132 | 7.0 | 16.0 | 0.00 | 0.00 | 0.00 | 56 | 1006.1 |
| 20260504225352 | 83 | 259 | 7.0 | 18.0 | 0.00 | 0.00 | 0.00 | 56 | 1005.9 |
| 20260504224852 | 83 | 144 | 8.0 | 18.0 | 0.00 | 0.00 | 0.00 | 56 | 1005.9 |
| 20260504224352 | 83 | 182 | 8.0 | 16.0 | 0.00 | 0.00 | 0.00 | 56 | 1006.2 |
| 20260504223852 | 83 | 157 | 8.0 | 16.0 | 0.00 | 0.00 | 0.00 | 55 | 1006.2 |
| 20260504223352 | 83 | 140 | 7.0 | 17.0 | 0.00 | 0.00 | 0.00 | 55 | 1006.3 |
| 20260504222853 | 83 | 164 | 6.0 | 17.0 | 0.00 | 0.00 | 0.00 | 54 | 1006.2 |
| 20260504222356 | 83 | 144 | 7.0 | 17.0 | 0.00 | 0.00 | 0.00 | 55 | 1006.1 |
| 20260504221850 | 83 | 142 | 7.0 | 20.0 | 0.00 | 0.00 | 0.00 | 55 | 1006.1 |
| 20260504221650 | 83 | 126 | 7.0 | 20.0 | 0.00 | 0.00 | 0.00 | 54 | 1006.1 |
| 20260504220850 | 83 | 80 | 8.0 | 20.0 | 0.00 | 0.00 | 0.00 | 55 | 1006.2 |
| 20260504220643 | 83 | 213 | 9.0 | 20.0 | 0.00 | 0.00 | 0.00 | 55 | 1006.3 |
| 20260504215850 | 83 | 173 | 8.0 | 18.0 | 0.00 | 0.00 | 0.00 | 55 | 1006.3 |